Regional Weather Roundup
Issued by NWS

Home | Current Version | Previous Version | Graphics & Text | Print | Product List | Glossary On
Versions: 1 2 3 4 5 6 7 8 9 10 11 12 13 14 15 16 17 18 19 20 21 22 23 24 25 26 27 28 29 30 31 32 33 34 35 36 37 38 39 40 41 42 43 44 45 46 47 48 49 50
000
ASUS43 KLMK 042110
RWRKY
KENTUCKY REGIONAL WEATHER ROUNDUP
NATIONAL WEATHER SERVICE LOUISVILLE KY
400 PM EST WED MAR 04 2015

NOTE "FAIR" INDICATES FEW OR NO CLOUDS BELOW 12,000 FEET
WITH NO SIGNIFICANT WEATHER AND/OR OBSTRUCTIONS TO VISIBILITY.

KYZ001>023-026-027-061>063-070>075-042200-
WESTERN AND SOUTH CENTRAL KENTUCKY

CITY           SKY/WX    TMP DP  RH WIND       PRES   REMARKS
PADUCAH        SLEET     26  22  84 N22       30.12R WCI  12
HENDERSON      CLOUDY    25  19  80 N14G21    30.13R VSB 3/4 WCI  13
OWENSBORO      FRZ RAIN  28  25  89 N16       30.10R FOG     WCI  16
HOPKINSVILLE   LGT RAIN  32  32 100 N14G20    30.00F WCI  22
BOWLING GREEN  LGT RAIN  37  33  85 N9G18     30.02R FOG     WCI  30
GLASGOW        LGT SNOW  37  37 100 N14       29.98R WCI  28
$$

KYZ024-025-028>034-038-045-046-053-042200-
NORTH CENTRAL KENTUCKY

CITY           SKY/WX    TMP DP  RH WIND       PRES   REMARKS
LOUISVILLE/SDF LGTSLEET  35  32  88 N12       30.02R FOG     WCI  27
LOUISVILLE/LOU LGT RAIN  34  32  92 N7        30.03R FOG     WCI  28
FORT KNOX      LGTSLEET  34  32  92 NW8G18    29.99R FOG     WCI  27
$$

KYZ035>037-039>044-047>052-055>060-089>105-042200-
NORTHEAST KENTUCKY

CITY           SKY/WX    TMP DP  RH WIND       PRES   REMARKS
LEXINGTON      RAIN      35  33  92 N8        29.96S FOG     WCI  29
COVINGTON      LGT SNOW  33  31  92 N14       29.97F VSB 3/4 WCI  23
FRANKFORT      LGT RAIN  35  32  88 N6        29.96S FOG     WCI  30
$$

KYZ054-064>069-076>088-106>120-042200-
SOUTHEAST KENTUCKY

CITY           SKY/WX    TMP DP  RH WIND       PRES   REMARKS
JACKSON        LGT RAIN  42  41  96 N6        29.91R FOG
LONDON         LGT RAIN  46  42  86 N9        29.88F
SOMERSET       RAIN      41  41 100 NE7       29.90F
MIDDLESBORO    HVY RAIN  50  50 100 CALM      29.87S VSB 1
MONTICELLO     CLOUDY    45  45 100 NE14      29.92S FOG
$$




USA.gov is the U.S. government's official web portal to all federal, state and local government web resources and services.